Flag for France Weather past 2 weeks in Bastia, Corsica, France

Now
41 °F

Passing clouds.


Feels Like: 38 °F
Forecast: 41 / 47 °F
Wind: 5 mph from Southwest

Location: Bastia Airport

Current Time: Jan 25, 2015 at 6:02:52 AM

Latest Report: Jan 25, 2015 at 5:00 AM


Visibility: N/A

Pressure: 29.83 "Hg

Humidity: 81%

Dew point: 36 °F

Location of BastiaLocation

Historic Weather in Bastia — Graph

°F

Bastia temperature yesterday

Maximum temperature yesterday: 59 °F (at 1:00 PM)
Minimum temperature yesterday: 43 °F (at 8:00 PM)
Average temperature yesterday: 51 °F

Past Weeks' High & Low Weather Summary

 TemperatureHumidityPressure
High68 °F (Jan 11, 3:30 PM)94% (Jan 10, 7:00 PM)30.45 "Hg (Jan 10, 7:00 PM)
Low41 °F (Jan 13, 8:00 AM)29% (Jan 12, 11:30 AM)29.65 "Hg (Jan 23, 3:30 AM)
Average50 °F72%29.99 "Hg
* Reported Jan 10 4:00 AM — Jan 25 4:30 AM, Bastia, Weather by CustomWeather, © 2014

Note: Actual official high and low records may vary slightly from our data, if they occured in-between our weather recording intervals... More about our weather records

Advertising

Bastia weather history for previous 24 hours

 ConditionsComfort  
Time TempWeatherWind HumidityBarometerVisibility
4:30 AM
Jan 25
43 °FPassing clouds.6 mph76%29.83 "HgN/A
4:00 AM41 °FPassing clouds.6 mph81%29.83 "HgN/A
3:30 AM43 °FPassing clouds.3 mph76%29.83 "HgN/A
3:00 AM43 °FPassing clouds.6 mph76%29.83 "HgN/A
2:34 AM43 °FPassing clouds.5 mph81%29.83 "HgN/A
2:00 AM43 °FMostly cloudy.6 mph81%29.80 "HgN/A
1:30 AM43 °FOvercast.6 mph81%29.80 "HgN/A
1:00 AM43 °FMostly cloudy.5 mph81%29.80 "HgN/A
12:30 AM43 °FPassing clouds.6 mph81%29.80 "HgN/A
12:00 AM43 °FPartly cloudy.5 mph81%29.80 "HgN/A
11:30 PM
Jan 24
43 °FPassing clouds.6 mph81%29.80 "HgN/A
11:00 PM45 °FPassing clouds.5 mph76%29.80 "HgN/A
10:30 PM45 °FPassing clouds.3 mph76%29.77 "HgN/A
10:00 PM45 °FPassing clouds.5 mph76%29.77 "HgN/A
9:30 PM43 °FPassing clouds.5 mph76%29.77 "HgN/A
9:00 PM43 °FPassing clouds.6 mph76%29.77 "HgN/A
8:30 PM43 °FPassing clouds.3 mph81%29.77 "HgN/A
8:00 PM43 °FPassing clouds.6 mph81%29.77 "HgN/A
7:37 PM45 °FPassing clouds.No wind81%29.77 "HgN/A
7:00 PM48 °FPassing clouds.3 mph71%29.77 "HgN/A
6:30 PM52 °FPassing clouds.2 mph67%29.77 "HgN/A
5:30 PM54 °FPassing clouds.9 mph63%29.77 "HgN/A
4:30 PM57 °FScattered clouds.9 mph59%29.77 "HgN/A
4:04 PM57 °FScattered clouds.6 mph55%29.77 "HgN/A
3:30 PM57 °FPartly sunny.10 mph59%29.77 "HgN/A
3:00 PM57 °FPartly sunny.7 mph59%29.80 "HgN/A
2:30 PM57 °FPartly sunny.7 mph59%29.80 "HgN/A
2:09 PM57 °FPassing clouds.8 mph59%29.80 "HgN/A
1:30 PM57 °FPassing clouds.5 mph59%29.80 "HgN/A
1:00 PM59 °FPassing clouds.6 mph51%29.83 "HgN/A
12:30 PM57 °FPassing clouds.5 mph55%29.83 "HgN/A
12:00 PM57 °FPassing clouds.5 mph55%29.86 "HgN/A
11:30 AM57 °FPassing clouds.7 mph59%29.86 "HgN/A
11:00 AM57 °FPassing clouds.7 mph59%29.86 "HgN/A
10:30 AM55 °FPassing clouds.5 mph63%29.86 "HgN/A
10:00 AM52 °FPassing clouds.2 mph72%29.86 "HgN/A
9:30 AM50 °FPassing clouds.5 mph71%29.86 "HgN/A
9:00 AM46 °FScattered clouds.3 mph82%29.86 "HgN/A
8:30 AM46 °FScattered clouds.6 mph82%29.86 "HgN/A
8:00 AM45 °FPassing clouds.5 mph81%29.83 "HgN/A
7:30 AM45 °FPassing clouds.6 mph87%29.83 "HgN/A
7:00 AM46 °FPartly cloudy.2 mph82%29.83 "HgN/A
6:30 AM48 °FPartly cloudy.3 mph76%29.83 "HgN/A
6:00 AM48 °FPartly cloudy.3 mph76%29.83 "HgN/A
Weather by CustomWeather, © 2014

See weather overviewHow to use our weather pages